Prudhoe Bay, AK

6:37 PM AKST on January 23, 2017 (GMT -0900)
Deadhorse

Weather History for PASC - June, 2013

Change the Weather History Date:

Thursday, June 27, 2013

  Actual Average Record
Temperature  
Mean Temperature 56 °F -  
Max Temperature 66 °F 51 °F 66 °F (2004)
Min Temperature 48 °F 35 °F 28 °F (1999)
Degree Days  
Heating Degree Days 9    
Growing Degree Days 6 (Base 50)    
Moisture  
Dew Point 48 °F    
Average Humidity 82    
Maximum Humidity 93    
Minimum Humidity 62    
Precipitation  
Precipitation 0.09 in - - ()
Sea Level Pressure  
Sea Level Pressure 29.79 in    
Wind  
Wind Speed 7 mph (East)    
Max Wind Speed 14 mph    
Max Gust Speed -    
Visibility 10 miles    
Events Rain    
Averages and records for this station are not official NWS values.
T = Trace of Precipitation, MM = Missing Value Source: NWS Daily Summary

Daily Weather History Graph

Daily Weather History Graph

Search for Another Location

Airport or City:

Trip Planner

Search our weather history database for the weather conditions in past years. The results will help you decide how hot, cold, wet, or windy it might be!

Date:

Astronomy

Dec. 31, 1969 Rise Set
Actual Time Sun does not rise Sun does not rise
Civil Twilight Sun does not rise Sun does not rise
Nautical Twilight Sun does not rise Sun does not rise
Astronomical Twilight Sun does not rise Sun does not rise
Moon 12:52 AM AKDT (6/27) 10:58 AM AKDT (6/27)
Length of Visible Light 24h 00m
Length of Day
24h 00m
Waning Gibbous, 75% of the Moon is Illuminated
Jun 27
Waning Gibbous
Jun 29
Last Quarter
Jul 7
New
Jul 15
First Quarter
Jul 22
Full

Hourly Weather History & Observations

Time (AKDT) Temp. Dew Point Humidity Pressure Visibility Wind Dir Wind Speed Gust Speed Precip Events Conditions
12:53 AM 48.9 °F 43.0 °F 80% 29.79 in 10.0 mi East 5.8 mph - N/A   Partly Cloudy
1:53 AM 48.0 °F 43.0 °F 83% 29.78 in 10.0 mi East 6.9 mph - N/A   Scattered Clouds
2:53 AM 48.0 °F 44.1 °F 86% 29.78 in 10.0 mi ESE 5.8 mph - N/A   Mostly Cloudy
3:53 AM 48.9 °F 43.0 °F 80% 29.78 in 10.0 mi East 3.5 mph - N/A   Mostly Cloudy
4:53 AM 50.0 °F 43.0 °F 77% 29.78 in 10.0 mi NNE 4.6 mph - N/A   Overcast
5:53 AM 48.9 °F 43.0 °F 80% 29.78 in 10.0 mi ENE 6.9 mph - N/A   Overcast
6:53 AM 48.9 °F 43.0 °F 80% 29.78 in 10.0 mi ESE 8.1 mph - N/A   Mostly Cloudy
7:53 AM 51.1 °F 43.0 °F 74% 29.78 in 10.0 mi East 5.8 mph - N/A   Mostly Cloudy
8:53 AM 50.0 °F 45.0 °F 83% 29.77 in 10.0 mi ENE 5.8 mph - 0.01 in   Overcast
9:53 AM 52.0 °F 46.0 °F 80% 29.76 in 10.0 mi ENE 6.9 mph - N/A   Overcast
10:53 AM 54.0 °F 45.0 °F 72% 29.76 in 10.0 mi East 6.9 mph - N/A   Mostly Cloudy
11:53 AM 59.0 °F 46.0 °F 62% 29.75 in 10.0 mi East 9.2 mph - N/A   Scattered Clouds
1:53 PM 51.1 °F 43.0 °F 74% 29.78 in 10.0 mi North 8.1 mph - N/A   Overcast
2:53 PM 48.0 °F 45.0 °F 89% 29.79 in 10.0 mi ENE 6.9 mph - 0.03 in Rain Light Rain
3:53 PM 48.0 °F 45.0 °F 89% 29.81 in 10.0 mi ENE 5.8 mph - 0.02 in Rain Light Rain
4:53 PM 48.9 °F 46.9 °F 93% 29.82 in 10.0 mi ESE 8.1 mph - 0.02 in Rain Light Rain
5:53 PM 55.0 °F 52.0 °F 89% 29.82 in 10.0 mi SE 13.8 mph - 0.01 in   Mostly Cloudy
6:53 PM 60.1 °F 57.9 °F 93% 29.82 in 10.0 mi SSE 6.9 mph - N/A   Overcast
7:53 PM 62.1 °F 59.0 °F 90% 29.81 in 10.0 mi South 6.9 mph - N/A   Overcast
8:53 PM 64.9 °F 61.0 °F 87% 29.81 in 10.0 mi SSW 10.4 mph - 0.00 in Rain Light Rain
9:53 PM 64.9 °F 61.0 °F 87% 29.81 in 10.0 mi SW 6.9 mph - 0.00 in   Mostly Cloudy
10:53 PM 64.0 °F 60.1 °F 87% 29.83 in 10.0 mi South 5.8 mph - N/A   Mostly Cloudy
11:53 PM 62.1 °F 55.0 °F 78% 29.85 in 10.0 mi NW 10.4 mph - N/A   Mostly Cloudy